Total_Precipitation_Accumulation
3.44 3.54 3.52 3.69 3.42 3.36 3.32 3.00 2.63 2.67 2.76 2.69 2.39 2.28 2.30 2.26 2.38 2.68 2.95 2.82 2.72 2.94 3.33 3.66 3.92 3.98 3.93 3.89 3.79 3.75 3.65 3.58 3.48 3.22 2.93 2.69 2.52 2.48 2.51 2.61 2.63 2.59 2.48
3.75 3.82 3.88 3.90 3.64 3.63 3.57 3.24 3.00 3.15 3.06 2.94 2.63 2.48 2.47 2.49 2.55 2.74 2.99 3.01 2.66 2.52 2.83 3.37 3.79 4.09 4.18 4.17 3.95 3.76 3.69 3.64 3.60 3.37 3.10 2.85 2.67 2.55 2.48 2.48 2.55 2.53 2.42
4.08 4.11 4.19 4.05 3.79 3.73 3.78 3.67 3.52 3.46 3.25 2.96 2.81 2.82 2.80 2.63 2.58 2.82 3.04 3.10 2.95 2.72 2.74 2.95 3.25 3.65 4.15 4.36 4.26 4.04 3.86 3.81 3.73 3.50 3.29 3.08 2.86 2.66 2.53 2.47 2.45 2.42 2.36
3.94 4.24 4.28 4.04 3.82 3.74 3.89 4.06 3.92 3.77 3.63 3.46 3.18 2.90 2.81 2.78 2.65 2.68 2.71 2.87 3.06 2.87 2.86 2.80 2.94 3.25 3.68 4.03 4.34 4.39 4.22 4.08 3.91 3.67 3.51 3.32 3.14 2.91 2.70 2.63 2.53 2.42 2.36
4.01 4.32 4.41 4.38 4.04 4.01 4.15 4.00 4.21 4.03 3.91 3.62 3.16 2.99 2.74 2.57 2.56 2.55 2.70 2.67 2.74 2.79 2.85 2.79 2.86 2.96 3.25 3.67 4.02 4.23 4.28 4.22 3.96 3.64 3.56 3.50 3.32 3.12 2.92 2.79 2.64 2.47 2.37
4.12 4.38 4.40 4.47 4.30 4.35 4.56 4.56 4.58 4.32 3.91 3.61 3.13 2.97 2.70 2.44 2.35 2.42 2.43 2.47 2.44 2.39 2.48 2.55 2.74 2.65 2.83 3.16 3.61 3.97 4.44 4.56 4.26 3.94 3.78 3.66 3.41 3.11 2.91 2.85 2.77 2.64 2.55
4.76 5.05 4.84 4.81 4.55 4.45 4.51 4.50 4.39 4.29 4.08 3.91 3.79 3.44 2.89 2.44 2.27 2.15 2.18 2.29 2.28 2.17 2.23 2.40 2.49 2.48 2.52 2.64 2.87 3.31 4.06 4.50 4.40 4.15 4.07 3.94 3.67 3.33 3.09 3.03 2.99 2.89 2.75
5.43 5.36 5.31 4.96 4.74 4.61 4.45 4.34 4.24 4.17 3.92 3.83 3.95 3.96 3.44 3.06 2.50 2.00 2.10 2.13 2.16 2.21 2.17 2.05 2.12 2.16 2.12 2.33 2.40 2.74 3.29 3.69 4.05 4.22 4.25 3.95 3.80 3.59 3.36 3.21 3.15 3.06 2.95
5.24 5.17 5.09 4.90 4.74 4.51 4.35 4.29 4.20 4.16 3.99 3.86 3.90 4.15 3.95 3.39 2.79 2.30 2.06 2.05 2.14 2.20 2.15 2.09 2.01 2.03 2.04 2.24 2.30 2.47 2.79 2.95 3.30 3.73 4.03 3.79 3.65 3.68 3.60 3.48 3.41 3.38 3.31
4.91 4.79 4.87 4.80 4.63 4.37 4.19 3.84 3.82 3.96 4.14 3.91 3.75 3.51 3.34 3.13 3.09 2.85 2.49 2.25 2.17 2.16 2.11 2.04 1.97 2.07 2.13 2.29 2.45 2.43 2.51 2.52 2.68 3.02 3.26 3.23 3.25 3.36 3.50 3.39 3.42 3.52 3.56
4.54 4.28 4.35 4.32 4.13 3.92 3.77 3.54 3.52 3.57 3.67 3.63 3.59 3.46 3.32 3.13 2.91 2.90 2.76 2.49 2.36 2.17 2.10 2.11 2.11 2.16 2.18 2.23 2.36 2.35 2.35 2.26 2.31 2.45 2.58 2.69 2.79 3.00 3.18 3.30 3.38 3.52 3.66
4.33 4.00 3.66 3.67 3.64 3.49 3.30 3.21 3.19 3.17 3.22 3.27 3.32 3.24 3.16 3.10 3.03 3.02 2.89 2.66 2.55 2.35 2.21 2.22 2.19 2.13 2.17 2.14 2.05 2.25 2.17 2.09 2.07 2.15 2.22 2.30 2.36 2.51 2.71 2.93 3.21 3.43 3.56
3.85 3.56 3.32 3.24 3.17 3.11 3.02 2.93 2.91 2.78 2.69 2.74 2.73 2.84 2.88 2.80 2.73 2.86 2.99 2.83 2.59 2.43 2.36 2.23 2.06 2.02 1.97 2.06 2.07 2.09 1.95 1.93 1.81 1.76 1.82 1.96 2.12 2.19 2.27 2.44 2.67 2.96 3.17
3.33 3.07 2.94 2.74 2.55 2.44 2.38 2.52 2.54 2.45 2.40 2.35 2.27 2.56 2.63 2.56 2.57 2.62 2.73 2.98 2.95 2.69 2.56 2.34 2.13 2.01 1.95 1.99 2.00 1.84 1.73 1.74 1.62 1.57 1.59 1.65 1.81 1.99 2.06 2.07 2.08 2.16 2.32
2.66 2.56 2.44 2.39 2.31 2.20 2.17 2.20 2.24 2.28 2.25 2.15 2.15 2.31 2.31 2.28 2.35 2.37 2.50 2.73 3.07 2.98 2.75 2.43 2.26 2.10 2.02 2.05 2.14 1.81 1.75 1.73 1.65 1.66 1.64 1.64 1.73 1.90 1.96 1.96 1.84 1.73 1.69
2.36 2.24 2.17 2.10 2.11 2.03 2.02 2.10 2.07 2.10 2.15 2.05 2.04 2.04 1.99 1.94 2.08 2.11 2.25 2.40 2.66 2.97 2.81 2.31 2.13 2.06 2.04 1.92 2.23 1.97 1.87 1.86 1.74 1.88 1.98 1.90 1.87 2.03 2.15 2.16 2.00 1.81 1.72
2.14 2.05 1.96 1.88 1.82 1.82 1.82 1.87 1.82 1.76 1.73 1.72 1.63 1.62 1.66 1.76 1.93 1.94 1.99 2.15 2.40 2.71 2.84 2.38 2.12 2.19 2.32 2.23 2.28 2.14 1.95 1.94 1.91 2.26 2.38 2.55 2.31 2.20 2.26 2.26 2.19 1.94 1.75
1.87 1.86 1.72 1.66 1.60 1.55 1.53 1.50 1.50 1.51 1.51 1.49 1.51 1.59 1.58 1.67 1.83 1.88 1.96 2.04 2.26 2.58 2.74 2.67 2.37 2.36 2.35 2.29 2.40 2.32 2.02 1.86 1.85 2.32 2.55 2.84 2.76 2.48 2.47 2.34 2.22 2.01 1.82
1.68 1.64 1.61 1.57 1.50 1.51 1.42 1.33 1.33 1.39 1.37 1.35 1.43 1.52 1.59 1.82 1.85 1.85 1.93 2.00 2.12 2.24 2.62 2.67 2.47 2.48 2.45 2.46 2.65 2.39 2.16 2.16 1.81 2.09 2.55 2.90 2.96 2.93 2.98 2.84 2.56 2.19 1.91
1.61 1.57 1.59 1.52 1.46 1.44 1.44 1.39 1.35 1.40 1.43 1.40 1.41 1.48 1.59 1.78 1.90 2.02 1.95 2.06 2.14 2.29 2.48 2.62 2.59 2.62 2.66 2.66 2.65 2.52 2.38 2.22 1.97 1.86 2.34 2.76 3.07 3.17 3.35 3.43 3.12 2.63 2.19
1.53 1.54 1.53 1.45 1.45 1.43 1.37 1.39 1.39 1.39 1.49 1.52 1.48 1.47 1.49 1.62 1.75 1.77 1.60 1.74 1.99 2.26 2.34 2.54 2.61 2.68 2.63 2.71 2.56 2.30 2.22 2.20 2.04 1.88 2.06 2.37 3.02 3.34 3.40 3.55 3.51 3.03 2.49
1.57 1.54 1.51 1.47 1.42 1.17 1.27 1.29 1.30 1.39 1.48 1.50 1.52 1.54 1.49 1.43 1.34 1.31 1.33 1.42 1.65 1.97 2.32 2.59 2.54 2.55 2.48 2.44 2.47 2.41 2.38 2.36 2.29 1.93 1.91 2.11 2.59 3.35 3.54 3.46 3.46 2.97 2.44
1.57 1.49 1.46 1.47 1.40 1.27 1.28 1.18 1.20 1.34 1.50 1.61 1.70 1.71 1.42 1.27 1.37 1.29 1.32 1.39 1.52 1.70 2.03 2.45 2.56 2.38 2.39 2.39 2.54 2.57 2.63 2.59 2.37 2.01 2.07 2.25 2.55 3.15 3.23 3.18 3.17 2.61 2.21
1.56 1.54 1.50 1.45 1.43 1.30 1.25 1.15 1.18 1.25 1.43 1.49 1.53 1.59 1.58 1.49 1.41 1.48 1.51 1.53 1.62 1.74 1.86 1.92 2.26 2.17 2.02 2.16 2.35 2.47 2.65 2.65 2.47 2.17 2.19 2.43 2.56 2.96 2.85 2.88 2.81 2.40 2.08
1.55 1.48 1.47 1.49 1.54 1.46 1.30 1.17 1.11 1.12 1.27 1.33 1.32 1.32 1.30 1.32 1.44 1.66 1.79 1.98 2.04 2.11 1.99 2.11 2.23 2.15 2.06 2.09 2.08 2.32 2.73 2.76 2.53 2.26 2.21 2.49 2.60 2.69 2.72 2.72 2.43 2.27 2.01
1.54 1.48 1.44 1.48 1.48 1.37 1.20 1.03 0.99 1.01 1.17 1.25 1.35 1.33 1.20 1.12 1.29 1.49 1.71 2.07 2.20 2.28 2.19 2.29 2.50 2.46 2.23 2.29 2.36 2.34 2.69 2.90 2.73 2.53 2.19 2.29 2.45 2.51 2.70 2.54 2.31 2.15 2.08